KF5JED-13 Weather Reports


Display with metric or nautical units.
time (UTC)temp
F
wind
direction
speed
MPH
gust
MPH
rain 1hr
in
rain 24hr
in
rain mn
in
humidity
%
barometer
mb
20260904162219 90 248 6.0 9.0 0.00 0.00 0.00 40 1016.6
20260904161715 89 219 8.0 12.0 0.00 0.00 0.00 40 1016.3
20260904161209 89 203 4.0 8.0 0.00 0.00 0.00 41 1016.5
20260904160705 89 226 6.0 11.0 0.00 0.00 0.00 42 1016.6
20260904160201 89 195 6.0 6.0 0.00 0.00 0.00 43 1016.5
20260904155655 88 194 6.0 11.0 0.00 0.00 0.00 45 1016.7
20260904155155 88 239 4.0 8.0 0.00 0.00 0.00 45 1016.3
20260904154653 87 217 7.0 8.0 0.00 0.00 0.00 48 1016.5
20260904154153 87 219 5.0 9.0 0.00 0.00 0.00 48 1016.3
20260904153649 86 241 4.0 8.0 0.00 0.00 0.00 49 1016.2
20260904153144 84 221 6.0 7.0 0.00 0.00 0.00 50 1016.3
20260904152641 85 206 5.0 8.0 0.00 0.00 0.00 50 1016.2
20260904152136 84 213 6.0 7.0 0.00 0.00 0.00 50 1016.2
20260904151630 84 236 4.0 8.0 0.00 0.00 0.00 50 1016.0
20260904151129 84 215 4.0 9.0 0.00 0.00 0.00 49 1016.1
20260904150625 84 210 6.0 6.0 0.00 0.00 0.00 50 1016.2
20260904150120 83 225 3.0 7.0 0.00 0.00 0.00 51 1016.3
20260904145618 83 200 5.0 8.0 0.00 0.00 0.00 49 1016.3
20260904145114 82 201 3.0 8.0 0.00 0.00 0.00 49 1016.2
20260904144609 82 195 4.0 5.0 0.00 0.00 0.00 52 1016.3
20260904144105 82 167 4.0 6.0 0.00 0.00 0.00 55 1016.2
20260904143601 81 171 4.0 5.0 0.00 0.00 0.00 54 1016.3
20260904143057 80 168 3.0 6.0 0.00 0.00 0.00 55 1016.3
20260904142554 80 152 4.0 5.0 0.00 0.00 0.00 56 1016.3
20260904142053 80 156 2.0 3.0 0.00 0.00 0.00 57 1016.3
20260904141549 79 147 2.0 2.0 0.00 0.00 0.00 59 1016.2
20260904141044 78 188 2.0 2.0 0.00 0.00 0.00 59 1016.1
20260904140539 78 234 1.0 2.0 0.00 0.00 0.00 61 1016.2
20260904140033 78 268 0.0 2.0 0.00 0.00 0.00 60 1015.9
20260904135533 81 103 0.0 0.0 0.00 0.00 0.00 58 1016.2
20260904135029 80 62 0.0 1.0 0.00 0.00 0.00 61 1016.1
20260904134524 77 22 0.0 1.0 0.00 0.00 0.00 65 1016.0
20260904134019 75 116 0.0 1.0 0.00 0.00 0.00 68 1015.9
20260904133513 74 122 1.0 2.0 0.00 0.00 0.00 69 1016.1
20260904133009 74 145 0.0 2.0 0.00 0.00 0.00 71 1016.0
20260904132504 72 142 0.0 1.0 0.00 0.00 0.00 75 1016.0
20260904132003 70 89 0.0 1.0 0.00 0.00 0.00 78 1015.8
20260904131458 69 130 0.0 2.0 0.00 0.00 0.00 81 1015.9
20260904130954 68 105 1.0 2.0 0.00 0.00 0.00 84 1015.6
20260904130453 66 92 0.0 2.0 0.00 0.00 0.00 84 1015.9
20260904125949 66 66 0.0 1.0 0.00 0.00 0.00 85 1015.7
20260904125444 66 134 1.0 2.0 0.00 0.00 0.00 85 1015.6
20260904124943 66 161 2.0 2.0 0.00 0.00 0.00 85 1015.5
20260904124440 66 156 0.0 2.0 0.00 0.00 0.00 86 1015.6
20260904123935 66 156 2.0 3.0 0.00 0.00 0.00 85 1015.5
20260904123431 66 162 2.0 3.0 0.00 0.00 0.00 84 1015.6
20260904122926 67 192 2.0 4.0 0.00 0.00 0.00 84 1015.1
20260904122426 65 195 3.0 4.0 0.00 0.00 0.00 86 1015.2
20260904121920 65 178 3.0 4.0 0.00 0.00 0.00 85 1015.0
20260904121417 66 159 2.0 3.0 0.00 0.00 0.00 83 1015.1
20260904120913 68 199 3.0 4.0 0.00 0.00 0.00 81 1015.2
20260904120409 67 216 2.0 2.0 0.00 0.00 0.00 82 1015.1
20260904115904 67 299 1.0 2.0 0.00 0.00 0.00 82 1015.2
20260904115359 67 129 0.0 1.0 0.00 0.00 0.00 82 1015.1
20260904114853 67 145 1.0 2.0 0.00 0.00 0.00 82 1014.9
20260904114348 67 202 2.0 2.0 0.00 0.00 0.00 83 1015.1
20260904113843 67 142 2.0 3.0 0.00 0.00 0.00 82 1015.0
20260904113343 67 191 2.0 3.0 0.00 0.00 0.00 82 1015.1
20260904112837 68 169 3.0 4.0 0.00 0.00 0.00 80 1014.9
20260904112333 68 148 3.0 5.0 0.00 0.00 0.00 80 1015.1
20260904111828 69 154 4.0 4.0 0.00 0.00 0.00 79 1015.1
20260904111324 69 198 5.0 7.0 0.00 0.00 0.00 77 1015.1
20260904110820 69 173 3.0 4.0 0.00 0.00 0.00 78 1015.1
20260904110319 70 186 4.0 5.0 0.00 0.00 0.00 77 1015.0
20260904105813 71 168 5.0 6.0 0.00 0.00 0.00 74 1014.8
20260904105308 71 139 4.0 6.0 0.00 0.00 0.00 73 1014.7
20260904104803 72 156 5.0 6.0 0.00 0.00 0.00 72 1014.7
20260904104259 72 164 5.0 7.0 0.00 0.00 0.00 72 1014.8
20260904103756 72 141 5.0 7.0 0.00 0.00 0.00 72 1014.7
20260904103255 72 158 8.0 10.0 0.00 0.00 0.00 72 1014.7
20260904102751 72 161 7.0 8.0 0.00 0.00 0.00 72 1014.7
20260904102246 71 146 6.0 8.0 0.00 0.00 0.00 73 1014.8
20260904101742 71 147 7.0 7.0 0.00 0.00 0.00 72 1014.6
20260904101238 71 146 5.0 8.0 0.00 0.00 0.00 72 1014.5
20260904100734 72 148 6.0 7.0 0.00 0.00 0.00 72 1014.5
20260904100230 72 147 5.0 8.0 0.00 0.00 0.00 71 1014.3
20260904095729 72 140 4.0 7.0 0.00 0.00 0.00 71 1014.3
20260904095224 72 134 6.0 8.0 0.00 0.00 0.00 70 1014.5
20260904094720 73 133 6.0 9.0 0.00 0.00 0.00 69 1014.3
20260904094219 73 143 8.0 10.0 0.00 0.00 0.00 69 1014.1
20260904093716 73 138 6.0 12.0 0.00 0.00 0.00 69 1014.2
20260904093215 73 138 9.0 12.0 0.00 0.00 0.00 68 1014.1
20260904092711 73 136 7.0 11.0 0.00 0.00 0.00 68 1014.1
20260904092207 73 126 8.0 12.0 0.00 0.00 0.00 68 1014.1
20260904091703 73 131 9.0 11.0 0.00 0.00 0.00 68 1014.3
20260904091158 73 134 6.0 11.0 0.00 0.00 0.00 67 1013.9
20260904090654 73 140 7.0 11.0 0.00 0.00 0.00 66 1014.5
20260904090149 73 148 7.0 12.0 0.00 0.00 0.00 67 1014.5
20260904085644 73 150 9.0 12.0 0.00 0.00 0.00 67 1014.1
20260904085143 73 151 7.0 10.0 0.00 0.00 0.00 67 1014.1
20260904084639 73 148 6.0 7.0 0.00 0.00 0.00 68 1014.3
20260904084135 73 156 7.0 9.0 0.00 0.00 0.00 67 1014.5
20260904083631 74 147 6.0 12.0 0.00 0.00 0.00 66 1014.5
20260904083127 74 160 7.0 10.0 0.00 0.00 0.00 65 1014.6
20260904082621 74 144 9.0 12.0 0.00 0.00 0.00 64 1014.6
20260904082117 74 148 8.0 13.0 0.00 0.00 0.00 64 1014.5
20260904081612 74 153 6.0 12.0 0.00 0.00 0.00 64 1014.5
20260904081108 74 153 6.0 10.0 0.00 0.00 0.00 64 1014.3
20260904080603 74 148 8.0 12.0 0.00 0.00 0.00 64 1014.6
20260904080059 74 151 11.0 13.0 0.00 0.00 0.00 63 1014.3
20260904075555 75 148 7.0 11.0 0.00 0.00 0.00 63 1014.2
20260904075050 75 145 9.0 12.0 0.00 0.00 0.00 62 1014.5
20260904074548 75 140 7.0 13.0 0.00 0.00 0.00 61 1014.6
20260904074038 75 156 6.0 12.0 0.00 0.00 0.00 62 1014.3
20260904073533 76 139 7.0 10.0 0.00 0.00 0.00 62 1014.2
20260904073030 76 149 9.0 11.0 0.00 0.00 0.00 61 1014.5
20260904072525 76 159 9.0 13.0 0.00 0.00 0.00 62 1014.3
20260904072020 75 154 12.0 14.0 0.00 0.00 0.00 62 1014.5
20260904071515 75 159 9.0 14.0 0.00 0.00 0.00 63 1014.3
20260904071010 75 156 8.0 13.0 0.00 0.00 0.00 64 1014.6
20260904070509 74 158 9.0 11.0 0.00 0.00 0.00 65 1014.7
20260904070004 73 162 8.0 10.0 0.00 0.00 0.00 68 1014.6
20260904065459 72 157 5.0 8.0 0.00 0.00 0.00 71 1014.6
20260904064955 72 155 6.0 8.0 0.00 0.00 0.00 72 1014.6
20260904064451 72 169 6.0 7.0 0.00 0.00 0.00 70 1014.7
20260904063945 73 168 6.0 9.0 0.00 0.00 0.00 69 1014.8
20260904063442 73 153 5.0 11.0 0.00 0.00 0.00 68 1014.8
20260904062937 74 149 6.0 11.0 0.00 0.00 0.00 67 1014.7
20260904062433 73 157 7.0 11.0 0.00 0.00 0.00 68 1014.8
20260904061928 74 156 12.0 13.0 0.00 0.00 0.00 67 1014.8
20260904061425 73 157 8.0 12.0 0.00 0.00 0.00 68 1015.0
20260904060921 73 149 7.0 12.0 0.00 0.00 0.00 69 1015.0
20260904060416 73 159 10.0 12.0 0.00 0.00 0.00 68 1014.9
20260904055912 73 153 10.0 13.0 0.00 0.00 0.00 68 1014.9
20260904055407 73 160 8.0 12.0 0.00 0.00 0.00 69 1015.0
20260904054903 73 140 7.0 12.0 0.00 0.00 0.00 69 1014.9
20260904054358 72 154 6.0 11.0 0.00 0.00 0.00 71 1014.9
20260904053854 73 160 9.0 13.0 0.00 0.00 0.00 71 1015.1
20260904053353 73 152 8.0 12.0 0.00 0.00 0.00 71 1015.0
20260904052849 73 157 10.0 12.0 0.00 0.00 0.00 71 1015.1
20260904052345 73 160 8.0 13.0 0.00 0.00 0.00 70 1015.1
20260904051841 74 155 9.0 15.0 0.00 0.00 0.00 68 1015.1
20260904051337 74 157 6.0 10.0 0.00 0.00 0.00 68 1015.1
20260904050836 74 151 5.0 11.0 0.00 0.00 0.00 67 1015.0
20260904050333 74 140 7.0 10.0 0.00 0.00 0.00 67 1014.9
20260904045827 74 128 7.0 11.0 0.00 0.26 0.26 67 1014.8
20260904045322 74 128 13.0 15.0 0.00 0.26 0.26 66 1014.9
20260904044817 73 132 8.0 12.0 0.00 0.26 0.26 66 1015.1
20260904044314 73 140 9.0 13.0 0.00 0.26 0.26 66 1014.8
20260904043809 74 144 9.0 11.0 0.00 0.26 0.26 64 1014.8
20260904043306 75 145 10.0 15.0 0.00 0.26 0.26 62 1015.0
20260904042801 75 135 6.0 14.0 0.00 0.26 0.26 62 1015.2
20260904042257 75 127 11.0 15.0 0.00 0.26 0.26 61 1015.0
20260904041756 75 143 9.0 14.0 0.00 0.26 0.26 61 1015.2
20260904041253 76 121 7.0 14.0 0.00 0.26 0.26 59 1015.0
20260904040748 76 128 15.0 18.0 0.00 0.26 0.26 57 1015.0
20260904040244 75 127 4.0 13.0 0.00 0.26 0.26 60 1015.0
20260904035740 76 95 3.0 9.0 0.00 0.26 0.26 60 1015.2
20260904035235 76 144 7.0 11.0 0.00 0.26 0.26 59 1014.8
20260904034734 75 116 6.0 13.0 0.00 0.26 0.26 61 1015.3
20260904034230 76 131 11.0 13.0 0.00 0.26 0.26 61 1015.1
20260904033725 75 118 6.0 13.0 0.00 0.26 0.26 62 1015.2
20260904033222 75 127 5.0 8.0 0.00 0.26 0.26 62 1015.0
20260904032718 75 106 5.0 8.0 0.00 0.26 0.26 63 1015.1
20260904032217 75 98 4.0 7.0 0.00 0.26 0.26 63 1014.9
20260904031712 74 108 3.0 8.0 0.00 0.26 0.26 65 1015.0
20260904031207 74 109 7.0 9.0 0.00 0.26 0.26 66 1015.0
20260904030703 75 88 5.0 8.0 0.00 0.26 0.26 63 1014.9
20260904030158 76 106 7.0 12.0 0.00 0.26 0.26 61 1014.8
20260904025655 77 113 9.0 14.0 0.00 0.26 0.26 59 1014.7
20260904025149 77 129 8.0 15.0 0.00 0.26 0.26 58 1014.3
20260904024645 77 125 8.0 14.0 0.00 0.26 0.26 58 1014.5
20260904024140 78 141 9.0 15.0 0.00 0.26 0.26 56 1014.5
20260904023636 77 137 14.0 16.0 0.00 0.26 0.26 58 1014.5
20260904023131 79 131 11.0 15.0 0.00 0.26 0.26 54 1014.2
20260904022631 79 144 9.0 17.0 0.00 0.26 0.26 54 1014.3
20260904022128 79 146 8.0 13.0 0.00 0.26 0.26 53 1014.0
20260904021624 79 136 12.0 15.0 0.00 0.26 0.26 53 1014.2
20260904021118 78 139 6.0 13.0 0.00 0.26 0.26 54 1014.2
20260904020614 78 128 9.0 13.0 0.00 0.26 0.26 55 1014.3
20260904015557 77 116 5.0 10.0 0.00 0.26 0.26 58 1014.2
20260904015056 78 126 8.0 12.0 0.00 0.26 0.26 56 1014.1
20260904014555 79 97 4.0 12.0 0.00 0.26 0.26 55 1014.0
20260904014051 80 87 7.0 14.0 0.00 0.26 0.26 54 1013.8
20260904013548 80 123 10.0 15.0 0.00 0.26 0.26 54 1013.8
20260904013039 80 133 14.0 22.0 0.00 0.26 0.26 53 1013.9
20260904012538 82 114 6.0 13.0 0.00 0.26 0.26 49 1013.9
20260904012038 81 138 11.0 19.0 0.00 0.26 0.26 49 1013.7
20260904011532 78 93 4.0 12.0 0.00 0.26 0.26 60 1014.1
20260904011027 80 118 14.0 26.0 0.00 0.26 0.26 54 1014.0
20260904010524 78 143 17.0 25.0 0.00 0.26 0.26 62 1013.9
20260904010019 78 149 15.0 23.0 0.00 0.26 0.26 57 1014.0
20260904005514 81 144 15.0 20.0 0.00 0.26 0.26 50 1013.9
20260904005009 79 141 4.0 9.0 0.00 0.26 0.26 56 1014.1
20260904004504 78 140 5.0 11.0 0.00 0.26 0.26 58 1014.2
20260904003959 78 127 7.0 14.0 0.00 0.26 0.26 57 1014.3
20260904003455 78 136 13.0 16.0 0.00 0.26 0.26 58 1014.7
20260904002950 77 97 10.0 11.0 0.00 0.26 0.26 67 1014.7
20260904002446 77 137 9.0 19.0 0.00 0.26 0.26 68 1015.0
20260904001944 76 166 14.0 17.0 0.00 0.26 0.26 71 1015.3
20260904001441 78 150 12.0 15.0 0.00 0.26 0.26 62 1015.0
20260904000935 79 148 6.0 11.0 0.00 0.26 0.26 61 1015.1
20260904000434 78 148 9.0 14.0 0.00 0.26 0.26 63 1015.2
20260903235930 78 147 10.0 12.0 0.00 0.26 0.26 59 1014.9
20260903235426 79 170 10.0 16.0 0.00 0.26 0.26 59 1014.9
20260903234920 80 157 10.0 16.0 0.00 0.26 0.26 57 1014.6
20260903234416 79 94 9.0 10.0 0.00 0.26 0.26 56 1013.9
20260903233912 78 104 8.0 13.0 0.00 0.26 0.26 59 1013.8
20260903233408 78 79 11.0 15.0 0.00 0.26 0.26 58 1013.6
20260903232902 78 82 11.0 13.0 0.00 0.26 0.26 63 1013.6
20260903232357 80 80 9.0 16.0 0.00 0.26 0.26 56 1013.6
20260903231856 80 112 12.0 16.0 0.00 0.26 0.26 59 1013.9
20260903231351 80 138 12.0 19.0 0.00 0.26 0.26 57 1014.0
20260903230847 81 142 10.0 17.0 0.00 0.26 0.26 57 1013.6
20260903230342 85 157 14.0 18.0 0.00 0.26 0.26 50 1013.7
20260903225838 86 148 7.0 9.0 0.00 0.26 0.26 46 1013.6
20260903225334 86 101 4.0 9.0 0.00 0.26 0.26 43 1013.7
20260903224830 85 102 7.0 11.0 0.00 0.26 0.26 47 1013.3
20260903224326 83 130 4.0 7.0 0.00 0.26 0.26 51 1013.8
20260903223822 83 70 8.0 12.0 0.00 0.26 0.26 49 1013.6
20260903223320 84 76 9.0 14.0 0.00 0.26 0.26 48 1013.8
20260903222815 80 101 6.0 13.0 0.00 0.26 0.26 55 1014.1
20260903222314 76 89 8.0 9.0 0.02 0.26 0.26 69 1014.1
20260903221809 75 354 6.0 11.0 0.61 0.26 0.26 68 1014.0
20260903221308 74 62 11.0 25.0 1.21 0.25 0.25 70 1013.9
20260903220806 77 127 6.0 15.0 0.92 0.15 0.15 65 1015.0
20260903220301 78 248 19.0 25.0 0.31 0.05 0.05 84 1013.8
20260903215753 92 284 10.0 17.0 0.00 0.00 0.00 34 1013.6
20260903215250 93 339 7.0 17.0 0.00 0.00 0.00 31 1013.1
20260903214747 93 328 9.0 16.0 0.00 0.00 0.00 31 1013.3
20260903214239 94 301 8.0 15.0 0.00 0.00 0.00 29 1013.2
20260903213732 94 304 6.0 13.0 0.00 0.00 0.00 29 1013.1
20260903213228 94 246 9.0 14.0 0.00 0.00 0.00 29 1013.2
20260903212724 98 210 10.0 12.0 0.00 0.00 0.00 28 1013.2
20260903212220 99 189 10.0 14.0 0.00 0.00 0.00 27 1012.9
20260903211713 101 224 9.0 17.0 0.00 0.00 0.00 25 1013.1
20260903211210 101 183 4.0 8.0 0.00 0.00 0.00 25 1013.1
20260903210706 101 311 4.0 5.0 0.00 0.00 0.00 25 1013.0
20260903210202 100 245 4.0 10.0 0.00 0.00 0.00 25 1013.3
20260903205701 100 209 10.0 16.0 0.00 0.00 0.00 25 1013.3
20260903205200 101 212 12.0 18.0 0.00 0.00 0.00 26 1013.5
20260903204656 101 251 2.0 6.0 0.00 0.00 0.00 25 1013.7
20260903204152 101 244 4.0 7.0 0.00 0.00 0.00 25 1013.6
20260903203647 100 142 5.0 12.0 0.00 0.00 0.00 26 1013.7
20260903203142 101 186 5.0 9.0 0.00 0.00 0.00 25 1013.9
20260903202637 101 205 7.0 8.0 0.00 0.00 0.00 25 1013.7
20260903202132 102 186 8.0 13.0 0.00 0.00 0.00 25 1013.9
20260903201626 101 169 7.0 14.0 0.00 0.00 0.00 26 1014.0
20260903201126 100 213 6.0 11.0 0.00 0.00 0.00 26 1013.8
20260903200621 99 217 16.0 19.0 0.00 0.00 0.00 26 1013.9
20260903200116 99 207 10.0 15.0 0.00 0.00 0.00 27 1014.2
20260903195612 101 163 5.0 10.0 0.00 0.00 0.00 25 1014.1
20260903195108 99 151 4.0 6.0 0.00 0.00 0.00 27 1014.2
20260903194602 101 163 4.0 11.0 0.00 0.00 0.00 26 1014.3
20260903194057 100 212 10.0 12.0 0.00 0.00 0.00 27 1014.6
20260903193554 99 216 11.0 13.0 0.00 0.00 0.00 27 1014.5
20260903193049 100 175 4.0 6.0 0.00 0.00 0.00 27 1014.5
20260903192545 99 206 10.0 14.0 0.00 0.00 0.00 27 1014.5
20260903192040 99 203 13.0 21.0 0.00 0.00 0.00 27 1014.5
20260903191536 99 147 5.0 10.0 0.00 0.00 0.00 28 1014.6
20260903191030 100 168 2.0 8.0 0.00 0.00 0.00 27 1014.8
20260903190524 98 301 6.0 6.0 0.00 0.00 0.00 29 1014.7
20260903190024 98 259 9.0 17.0 0.00 0.00 0.00 29 1014.9
20260903185519 98 268 4.0 8.0 0.00 0.00 0.00 29 1015.1
20260903185015 98 230 8.0 12.0 0.00 0.00 0.00 29 1015.1
20260903184506 97 246 4.0 9.0 0.00 0.00 0.00 29 1015.3
20260903184005 98 287 4.0 6.0 0.00 0.00 0.00 28 1015.2
20260903183500 98 230 8.0 11.0 0.00 0.00 0.00 28 1015.3
20260903182959 97 235 9.0 12.0 0.00 0.00 0.00 29 1015.5
20260903182458 97 228 7.0 10.0 0.00 0.00 0.00 29 1015.6
20260903181954 97 237 8.0 12.0 0.00 0.00 0.00 30 1015.7
20260903181448 96 238 6.0 15.0 0.00 0.00 0.00 30 1015.8
20260903180947 96 240 12.0 16.0 0.00 0.00 0.00 30 1015.7
20260903180443 96 219 7.0 9.0 0.00 0.00 0.00 31 1015.8
20260903175942 96 214 11.0 18.0 0.00 0.00 0.00 30 1015.8
20260903175437 96 230 6.0 9.0 0.00 0.00 0.00 31 1016.0
20260903174936 96 248 6.0 13.0 0.00 0.00 0.00 31 1016.0
20260903174432 96 239 13.0 14.0 0.00 0.00 0.00 31 1015.9
20260903173931 95 224 13.0 20.0 0.00 0.00 0.00 32 1016.2
20260903173426 95 218 7.0 20.0 0.00 0.00 0.00 32 1016.1
20260903172922 96 216 15.0 18.0 0.00 0.00 0.00 32 1015.9
20260903172416 96 215 11.0 17.0 0.00 0.00 0.00 32 1016.0
20260903171912 95 210 16.0 20.0 0.00 0.00 0.00 33 1016.0
20260903171407 95 209 11.0 19.0 0.00 0.00 0.00 33 1015.9
20260903170901 95 205 7.0 15.0 0.00 0.00 0.00 33 1016.1
20260903170356 95 210 13.0 21.0 0.00 0.00 0.00 33 1016.0
20260903165855 94 229 13.0 18.0 0.00 0.00 0.00 33 1016.1
20260903165349 93 215 17.0 19.0 0.00 0.00 0.00 33 1016.2
20260903164844 93 234 13.0 16.0 0.00 0.00 0.00 33 1016.2
20260903164339 94 221 11.0 17.0 0.00 0.00 0.00 33 1015.9
20260903163838 94 223 12.0 19.0 0.00 0.00 0.00 33 1016.1
20260903163335 93 217 14.0 17.0 0.00 0.00 0.00 33 1016.2
20260903162831 93 216 16.0 19.0 0.00 0.00 0.00 33 1016.1
20260903162327 93 216 17.0 20.0 0.00 0.00 0.00 34 1016.1